TimeEDT,TemperatureF,Dew PointF,Humidity,Sea Level PressureIn,VisibilityMPH,Wind Direction,Wind SpeedMPH,Gust SpeedMPH,PrecipitationIn,Events,Conditions,WindDirDegrees,DateUTC
12:29 AM,48.2,46.4,93,30.20,2.5,Calm,Calm,-,0.01,,Overcast,0,2013-10-07 04:29:00
12:54 AM,48.0,46.0,93,30.21,3.0,Calm,Calm,-,0.02,,Overcast,0,2013-10-07 04:54:00
1:03 AM,48.2,46.4,93,30.19,2.5,Calm,Calm,-,N/A,,Overcast,0,2013-10-07 05:03:00
1:10 AM,48.2,46.4,93,30.19,2.5,Calm,Calm,-,N/A,,Overcast,0,2013-10-07 05:10:00
1:20 AM,48.2,46.4,93,30.19,2.5,Calm,Calm,-,N/A,,Overcast,0,2013-10-07 05:20:00
1:49 AM,48.2,46.4,93,30.18,3.0,Calm,Calm,-,0.01,Rain,Light Rain,0,2013-10-07 05:49:00
1:52 AM,48.2,46.4,93,30.18,2.5,Calm,Calm,-,0.02,Rain,Light Rain,0,2013-10-07 05:52:00
1:54 AM,48.0,46.9,96,30.19,2.5,Calm,Calm,-,0.02,Rain,Light Rain,0,2013-10-07 05:54:00
2:15 AM,48.2,46.4,93,30.17,3.0,Calm,Calm,-,0.01,Rain,Light Rain,0,2013-10-07 06:15:00
2:29 AM,48.2,46.4,93,30.17,2.5,Calm,Calm,-,0.01,,Overcast,0,2013-10-07 06:29:00
2:45 AM,48.2,46.4,93,30.16,2.5,Calm,Calm,-,0.01,,Overcast,0,2013-10-07 06:45:00
2:54 AM,48.0,46.9,96,30.17,2.5,Calm,Calm,-,0.02,Rain,Light Rain,0,2013-10-07 06:54:00
2:58 AM,48.2,46.4,93,30.16,3.0,Calm,Calm,-,0.00,Rain,Light Rain,0,2013-10-07 06:58:00
3:34 AM,48.2,46.4,93,30.15,2.5,Calm,Calm,-,0.01,,Overcast,0,2013-10-07 07:34:00
3:54 AM,48.0,46.9,96,30.15,2.5,Calm,Calm,-,0.01,Rain,Light Rain,0,2013-10-07 07:54:00
4:02 AM,48.2,46.4,93,30.14,3.0,Calm,Calm,-,0.01,Rain,Light Rain,0,2013-10-07 08:02:00
4:54 AM,48.0,46.9,96,30.13,4.0,Calm,Calm,-,0.04,Rain,Rain,0,2013-10-07 08:54:00
5:54 AM,48.9,46.9,93,30.12,3.0,Calm,Calm,-,0.01,Rain,Light Rain,0,2013-10-07 09:54:00
6:31 AM,48.2,48.2,100,30.11,2.5,Calm,Calm,-,0.01,,Overcast,0,2013-10-07 10:31:00
6:50 AM,48.2,48.2,100,30.10,4.0,Calm,Calm,-,0.01,,Overcast,0,2013-10-07 10:50:00
6:54 AM,48.9,48.0,97,30.12,4.0,Calm,Calm,-,0.01,,Overcast,0,2013-10-07 10:54:00
7:04 AM,48.2,46.4,93,30.10,3.0,Calm,Calm,-,N/A,,Overcast,0,2013-10-07 11:04:00
7:11 AM,48.2,48.2,100,30.10,2.0,Calm,Calm,-,N/A,,Overcast,0,2013-10-07 11:11:00
7:39 AM,48.2,48.2,100,30.10,3.0,WNW,3.5,-,N/A,,Overcast,300,2013-10-07 11:39:00
7:50 AM,48.2,48.2,100,30.10,2.0,Calm,Calm,-,N/A,,Overcast,0,2013-10-07 11:50:00
7:54 AM,48.9,48.0,97,30.10,1.8,Calm,Calm,-,N/A,,Overcast,0,2013-10-07 11:54:00
8:22 AM,50.0,48.2,94,30.09,2.0,Calm,Calm,-,0.00,,Overcast,0,2013-10-07 12:22:00
8:34 AM,50.0,48.2,94,30.08,1.8,Calm,Calm,-,0.00,,Overcast,0,2013-10-07 12:34:00
8:45 AM,50.0,48.2,94,30.09,2.0,Calm,Calm,-,0.00,,Overcast,0,2013-10-07 12:45:00
8:54 AM,50.0,48.9,96,30.10,2.5,Calm,Calm,-,0.00,,Overcast,0,2013-10-07 12:54:00
9:54 AM,51.1,50.0,96,30.07,2.0,Calm,Calm,-,0.01,,Overcast,0,2013-10-07 13:54:00
10:00 AM,51.8,50.0,94,30.06,1.2,Calm,Calm,-,N/A,,Overcast,0,2013-10-07 14:00:00
10:39 AM,51.8,51.8,100,30.04,1.5,NNW,3.5,-,N/A,,Overcast,330,2013-10-07 14:39:00
10:54 AM,52.0,51.1,97,30.04,2.5,Calm,Calm,-,N/A,,Overcast,0,2013-10-07 14:54:00
11:37 AM,53.6,51.8,94,30.00,3.0,Calm,Calm,-,N/A,,Overcast,0,2013-10-07 15:37:00
11:44 AM,53.6,51.8,94,30.00,2.0,Calm,Calm,-,N/A,,Overcast,0,2013-10-07 15:44:00
11:54 AM,53.1,52.0,96,30.01,1.5,Calm,Calm,-,0.01,Rain,Light Rain,0,2013-10-07 15:54:00
12:03 PM,53.6,51.8,94,29.99,1.2,Calm,Calm,-,0.03,Rain,Rain,0,2013-10-07 16:03:00
12:11 PM,53.6,51.8,94,29.98,2.0,Calm,Calm,-,0.04,Rain,Light Rain,0,2013-10-07 16:11:00
12:19 PM,53.6,51.8,94,29.98,7.0,Calm,Calm,-,0.04,Rain,Light Rain,0,2013-10-07 16:19:00
12:54 PM,54.0,52.0,93,29.97,10.0,Calm,Calm,-,0.08,Rain,Light Rain,0,2013-10-07 16:54:00
1:35 PM,53.6,51.8,94,29.92,6.0,Calm,Calm,-,0.00,Rain,Light Rain,0,2013-10-07 17:35:00
1:54 PM,54.0,53.1,97,29.91,5.0,Calm,Calm,-,0.00,,Overcast,0,2013-10-07 17:54:00
2:26 PM,53.6,53.6,100,29.89,2.5,NNW,4.6,-,N/A,,Overcast,330,2013-10-07 18:26:00
2:43 PM,53.6,53.6,100,29.88,1.5,Variable,3.5,-,N/A,,Overcast,0,2013-10-07 18:43:00
2:51 PM,55.4,53.6,94,29.87,1.2,Calm,Calm,-,N/A,,Overcast,0,2013-10-07 18:51:00
2:54 PM,55.0,54.0,96,29.88,1.2,Calm,Calm,-,N/A,,Overcast,0,2013-10-07 18:54:00
3:54 PM,55.0,54.0,96,29.83,1.0,Calm,Calm,-,0.00,,Mist,0,2013-10-07 19:54:00
4:18 PM,53.6,53.6,100,29.81,0.8,Calm,Calm,-,N/A,,Mist,0,2013-10-07 20:18:00
4:49 PM,55.4,55.4,100,29.79,0.2,Calm,Calm,-,N/A,Fog,Fog,0,2013-10-07 20:49:00
4:54 PM,55.0,54.0,96,29.80,0.5,Calm,Calm,-,0.00,Fog-Rain,Light Rain,0,2013-10-07 20:54:00
5:10 PM,55.4,55.4,100,29.78,1.0,Calm,Calm,-,0.02,Rain,Light Rain,0,2013-10-07 21:10:00
5:22 PM,55.4,55.4,100,29.78,2.0,Calm,Calm,-,0.04,Rain,Rain,0,2013-10-07 21:22:00
5:28 PM,55.4,55.4,100,29.77,5.0,Calm,Calm,-,0.04,Rain,Light Rain,0,2013-10-07 21:28:00
5:52 PM,64.4,62.6,94,29.75,10.0,South,6.9,-,0.04,,Mostly Cloudy,170,2013-10-07 21:52:00
5:54 PM,64.0,64.0,100,29.75,10.0,South,5.8,-,0.04,,Overcast,180,2013-10-07 21:54:00
6:33 PM,66.2,66.2,100,29.72,7.0,SSE,12.7,24.2,0.01,Rain,Rain,160,2013-10-07 22:33:00
6:45 PM,66.2,66.2,100,29.73,4.0,South,9.2,21.9,0.04,Rain,Heavy Rain,190,2013-10-07 22:45:00
6:50 PM,66.2,66.2,100,29.76,1.8,WSW,10.4,21.9,0.13,Rain,Heavy Rain,250,2013-10-07 22:50:00
6:54 PM,66.9,66.0,97,29.77,1.0,SW,13.8,26.5,0.32,Rain,Heavy Rain,220,2013-10-07 22:54:00
7:02 PM,66.2,66.2,100,29.76,1.5,SSW,10.4,26.5,0.03,Rain,Rain,210,2013-10-07 23:02:00
7:05 PM,66.2,64.4,94,29.76,4.0,SW,9.2,21.9,0.04,Rain,Rain,220,2013-10-07 23:05:00
7:54 PM,64.0,62.1,93,29.77,7.0,Variable,6.9,20.7,0.17,Rain,Light Rain,0,2013-10-07 23:54:00
8:54 PM,64.0,62.1,93,29.80,10.0,Variable,4.6,-,0.06,Rain,Light Rain,0,2013-10-08 00:54:00
9:54 PM,62.1,57.9,86,29.82,10.0,Variable,3.5,-,0.00,,Overcast,0,2013-10-08 01:54:00
10:54 PM,60.1,55.9,86,29.83,10.0,SW,5.8,-,N/A,,Overcast,220,2013-10-08 02:54:00
11:54 PM,59.0,53.1,81,29.84,10.0,WSW,4.6,-,N/A,,Mostly Cloudy,240,2013-10-08 03:54:00